Tracking 20241 objects as of 26-Jan-2020
HD Live streaming from Space Station
objects crossing your sky now

COSMOS 2251 DEB

Track COSMOS 2251 DEB now!
10-day predictions


NORAD ID: 35614
Int'l Code: 1993-036ANH
Perigee: 664.4 km
Apogee: 805.1 km
Inclination: 74.0 °
Period: 99.4 minutes
Semi major axis: 7105 km
RCS: 0.0173 m2 (small)
Launch date: June 16, 1993
Source: Commonwealth of Independent States (former USSR) (CIS)
Launch site: PLESETSK MISSILE AND SPACE COMPLEX (PKMTR)

Note: This is SATELLITE DEBRIS
aabbcc
Your satellite tracking list
Your tracking list is empty




NASA's NSSDC Master Catalog

Two Line Element Set (TLE):
1 35614U 93036ANH 20024.91589324 +.00000291 +00000-0 +78879-4 0  9994
2 35614 073.9636 089.7885 0099054 078.3829 282.8428 14.49398012564914
Source of the keplerian elements: AFSPC